Time,TemperatureF,DewpointF,PressureIn,WindDirection,WindDirectionDegrees,WindSpeedMPH,WindSpeedGustMPH,Humidity,HourlyPrecipIn,Conditions,Clouds,dailyrainin,SoftwareType,DateUTC
2013-04-03 00:00:00,33.4,37.6,30.30,North,7,0.0,0.0,15,0.00,,,0.00,meteohub,2013-04-03 05:00:00,
2013-04-03 00:06:00,33.3,37.6,30.30,North,7,0.0,0.0,15,0.00,,,0.00,meteohub,2013-04-03 05:06:00,
2013-04-03 00:11:00,33.1,38.1,30.30,North,7,0.0,0.0,15,0.00,,,0.00,meteohub,2013-04-03 05:11:00,
2013-04-03 00:16:00,32.7,37.9,30.30,North,7,0.0,0.0,15,0.00,,,0.00,meteohub,2013-04-03 05:16:00,
2013-04-03 00:21:00,32.5,37.8,30.30,North,7,0.0,0.0,15,0.00,,,0.00,meteohub,2013-04-03 05:21:00,
2013-04-03 00:27:00,32.5,37.6,30.30,North,7,0.0,0.0,15,0.00,,,0.00,meteohub,2013-04-03 05:27:00,
2013-04-03 00:32:00,32.5,37.4,30.30,North,7,0.0,0.0,15,0.00,,,0.00,meteohub,2013-04-03 05:32:00,
2013-04-03 00:37:00,32.5,37.2,30.30,North,7,0.0,0.0,15,0.00,,,0.00,meteohub,2013-04-03 05:37:00,
2013-04-03 00:42:00,32.4,37.0,30.30,North,7,0.0,0.0,15,0.00,,,0.00,meteohub,2013-04-03 05:42:00,
2013-04-03 00:47:00,32.2,37.0,30.30,North,7,0.0,0.0,15,0.00,,,0.00,meteohub,2013-04-03 05:47:00,
2013-04-03 00:52:00,32.2,37.6,30.30,North,7,0.0,0.0,15,0.00,,,0.00,meteohub,2013-04-03 05:52:00,
2013-04-03 00:58:00,31.8,37.6,30.30,North,7,0.0,0.0,15,0.00,,,0.00,meteohub,2013-04-03 05:58:00,
2013-04-03 01:03:00,31.6,37.4,30.30,North,7,0.0,0.0,15,0.00,,,0.00,meteohub,2013-04-03 06:03:00,
2013-04-03 01:08:00,31.5,37.4,30.30,North,7,0.0,0.0,15,0.00,,,0.00,meteohub,2013-04-03 06:08:00,
2013-04-03 01:13:00,31.6,37.2,30.30,North,7,0.0,0.0,15,0.00,,,0.00,meteohub,2013-04-03 06:13:00,
2013-04-03 01:19:00,31.5,37.0,30.30,North,7,0.0,0.0,15,0.00,,,0.00,meteohub,2013-04-03 06:19:00,
2013-04-03 01:24:00,31.5,37.0,30.30,North,7,0.0,0.0,15,0.00,,,0.00,meteohub,2013-04-03 06:24:00,
2013-04-03 01:29:00,31.3,36.9,30.30,North,7,0.0,0.0,15,0.00,,,0.00,meteohub,2013-04-03 06:29:00,
2013-04-03 01:34:00,31.1,36.7,30.30,North,7,0.0,0.0,15,0.00,,,0.00,meteohub,2013-04-03 06:34:00,
2013-04-03 01:39:00,30.9,36.7,30.30,North,7,0.0,0.0,15,0.00,,,0.00,meteohub,2013-04-03 06:39:00,
2013-04-03 01:45:00,30.7,36.5,30.30,North,7,0.0,0.0,15,0.00,,,0.00,meteohub,2013-04-03 06:45:00,
2013-04-03 01:50:00,30.6,36.5,30.30,North,7,0.0,0.0,15,0.00,,,0.00,meteohub,2013-04-03 06:50:00,
2013-04-03 01:55:00,30.6,36.3,30.30,North,7,0.0,0.0,15,0.00,,,0.00,meteohub,2013-04-03 06:55:00,
2013-04-03 02:01:00,30.6,36.3,30.30,NE,37,0.0,0.0,15,0.00,,,0.00,meteohub,2013-04-03 07:01:00,
2013-04-03 02:06:00,30.4,36.3,30.30,NE,37,0.0,0.0,15,0.00,,,0.00,meteohub,2013-04-03 07:06:00,
2013-04-03 02:11:00,30.4,36.1,30.30,NE,37,0.0,0.0,15,0.00,,,0.00,meteohub,2013-04-03 07:11:00,
2013-04-03 02:17:00,30.2,36.0,30.30,NE,37,0.0,0.0,15,0.00,,,0.00,meteohub,2013-04-03 07:17:00,
2013-04-03 02:22:00,30.2,36.0,30.30,NE,37,0.0,0.0,15,0.00,,,0.00,meteohub,2013-04-03 07:22:00,
2013-04-03 02:27:00,30.2,35.8,30.30,NE,37,0.0,0.0,15,0.00,,,0.00,meteohub,2013-04-03 07:27:00,
2013-04-03 02:32:00,30.4,35.8,30.30,NE,37,0.0,0.0,15,0.00,,,0.00,meteohub,2013-04-03 07:32:00,
2013-04-03 02:38:00,30.4,35.6,30.30,NE,37,0.0,0.0,15,0.00,,,0.00,meteohub,2013-04-03 07:38:00,
2013-04-03 02:43:00,30.4,35.6,30.30,NE,37,0.0,0.0,15,0.00,,,0.00,meteohub,2013-04-03 07:43:00,
2013-04-03 02:48:00,30.4,35.4,30.30,NE,37,0.0,0.0,15,0.00,,,0.00,meteohub,2013-04-03 07:48:00,
2013-04-03 02:54:00,30.4,35.2,30.30,NE,37,0.0,0.0,15,0.00,,,0.00,meteohub,2013-04-03 07:54:00,
2013-04-03 02:59:00,30.7,35.2,30.30,NE,37,0.0,0.0,15,0.00,,,0.00,meteohub,2013-04-03 07:59:00,
2013-04-03 03:04:00,31.1,35.1,30.30,NE,37,0.0,0.0,15,0.00,,,0.00,meteohub,2013-04-03 08:04:00,
2013-04-03 03:10:00,32.2,35.1,30.30,NE,37,0.0,0.0,15,0.00,,,0.00,meteohub,2013-04-03 08:10:00,
2013-04-03 03:15:00,33.3,35.1,30.30,NE,37,0.0,0.0,15,0.00,,,0.00,meteohub,2013-04-03 08:15:00,
2013-04-03 03:20:00,33.6,35.1,30.30,NE,37,0.0,0.0,15,0.00,,,0.00,meteohub,2013-04-03 08:20:00,
2013-04-03 03:25:00,33.8,34.9,30.30,NE,37,0.0,0.0,15,0.00,,,0.00,meteohub,2013-04-03 08:25:00,
2013-04-03 03:30:00,33.8,34.9,30.30,NE,37,0.0,0.0,15,0.00,,,0.00,meteohub,2013-04-03 08:30:00,
2013-04-03 03:35:00,33.8,34.7,30.30,NE,37,0.0,0.0,15,0.00,,,0.00,meteohub,2013-04-03 08:35:00,
2013-04-03 03:40:00,33.6,34.5,30.30,NE,37,0.0,0.0,15,0.00,,,0.00,meteohub,2013-04-03 08:40:00,
2013-04-03 03:46:00,33.6,34.5,30.33,NE,37,0.0,0.0,15,0.00,,,0.00,meteohub,2013-04-03 08:46:00,
2013-04-03 03:51:00,33.6,34.5,30.33,NE,37,0.0,0.0,15,0.00,,,0.00,meteohub,2013-04-03 08:51:00,
2013-04-03 03:56:00,33.6,34.3,30.33,NE,37,0.0,0.0,15,0.00,,,0.00,meteohub,2013-04-03 08:56:00,
2013-04-03 04:01:00,33.3,34.3,30.30,NE,37,0.0,0.0,15,0.00,,,0.00,meteohub,2013-04-03 09:01:00,
2013-04-03 04:07:00,32.4,34.2,30.30,NE,37,0.0,0.0,15,0.00,,,0.00,meteohub,2013-04-03 09:07:00,
2013-04-03 04:12:00,32.0,34.2,30.30,NE,37,0.0,0.0,15,0.00,,,0.00,meteohub,2013-04-03 09:12:00,
2013-04-03 04:17:00,31.3,34.0,30.30,NE,37,0.0,0.0,15,0.00,,,0.00,meteohub,2013-04-03 09:17:00,
2013-04-03 04:22:00,31.1,34.0,30.30,NE,37,0.0,0.0,15,0.00,,,0.00,meteohub,2013-04-03 09:22:00,
2013-04-03 04:28:00,31.8,33.8,30.30,NE,37,0.0,0.0,15,0.00,,,0.00,meteohub,2013-04-03 09:28:00,
2013-04-03 04:33:00,32.7,33.8,30.30,NE,37,0.0,0.0,15,0.00,,,0.00,meteohub,2013-04-03 09:33:00,
2013-04-03 04:38:00,32.7,33.8,30.30,NE,37,0.0,0.0,15,0.00,,,0.00,meteohub,2013-04-03 09:38:00,
2013-04-03 04:43:00,32.9,33.6,30.30,NE,37,0.0,0.0,15,0.00,,,0.00,meteohub,2013-04-03 09:43:00,
2013-04-03 04:48:00,32.9,33.6,30.30,NE,37,0.0,0.0,15,0.00,,,0.00,meteohub,2013-04-03 09:48:00,
2013-04-03 04:53:00,33.1,33.6,30.30,NE,37,0.0,0.0,15,0.00,,,0.00,meteohub,2013-04-03 09:53:00,
2013-04-03 04:58:00,32.9,33.4,30.30,NE,37,0.0,0.0,15,0.00,,,0.00,meteohub,2013-04-03 09:58:00,
2013-04-03 05:04:00,32.7,33.4,30.30,North,7,2.0,0.0,15,0.00,,,0.00,meteohub,2013-04-03 10:04:00,
2013-04-03 05:09:00,32.7,33.3,30.30,North,7,2.0,4.0,15,0.00,,,0.00,meteohub,2013-04-03 10:09:00,
2013-04-03 05:14:00,32.5,33.3,30.30,NNE,24,3.0,4.0,15,0.00,,,0.00,meteohub,2013-04-03 10:14:00,
2013-04-03 05:19:00,32.7,33.1,30.30,North,7,4.0,4.0,15,0.00,,,0.00,meteohub,2013-04-03 10:19:00,
2013-04-03 05:24:00,33.1,33.1,30.30,ENE,58,4.0,5.0,15,0.00,,,0.00,meteohub,2013-04-03 10:24:00,
2013-04-03 05:30:00,33.3,33.1,30.30,NNE,33,5.0,5.0,15,0.00,,,0.00,meteohub,2013-04-03 10:30:00,
2013-04-03 05:35:00,33.6,32.9,30.30,North,2,5.0,6.0,15,0.00,,,0.00,meteohub,2013-04-03 10:35:00,
2013-04-03 05:40:00,33.6,32.9,30.30,NE,40,2.0,6.0,15,0.00,,,0.00,meteohub,2013-04-03 10:40:00,
2013-04-03 05:45:00,33.6,32.7,30.30,North,8,4.0,6.0,15,0.00,,,0.00,meteohub,2013-04-03 10:45:00,
2013-04-03 05:50:00,33.3,32.7,30.30,North,0,0.0,8.0,15,0.00,,,0.00,meteohub,2013-04-03 10:50:00,
2013-04-03 05:56:00,33.1,32.5,30.30,North,0,0.0,8.0,15,0.00,,,0.00,meteohub,2013-04-03 10:56:00,
2013-04-03 06:01:00,32.7,32.5,30.33,North,0,0.0,4.0,15,0.00,,,0.00,meteohub,2013-04-03 11:01:00,
2013-04-03 06:06:00,32.5,32.5,30.33,North,0,0.0,0.0,15,0.00,,,0.00,meteohub,2013-04-03 11:06:00,
2013-04-03 06:12:00,32.5,32.5,30.33,North,0,0.0,0.0,15,0.00,,,0.00,meteohub,2013-04-03 11:12:00,
2013-04-03 06:17:00,32.5,32.5,30.33,North,0,0.0,0.0,15,0.00,,,0.00,meteohub,2013-04-03 11:17:00,
2013-04-03 06:22:00,32.5,32.5,30.33,North,0,0.0,0.0,15,0.00,,,0.00,meteohub,2013-04-03 11:22:00,
2013-04-03 06:27:00,32.4,32.4,30.33,North,0,0.0,0.0,15,0.00,,,0.00,meteohub,2013-04-03 11:27:00,
2013-04-03 06:33:00,32.0,32.4,30.33,North,0,0.0,0.0,15,0.00,,,0.00,meteohub,2013-04-03 11:33:00,
2013-04-03 06:38:00,32.0,32.2,30.33,North,0,0.0,0.0,15,0.00,,,0.00,meteohub,2013-04-03 11:38:00,
2013-04-03 06:43:00,31.8,33.3,30.36,North,0,0.0,0.0,15,0.00,,,0.00,meteohub,2013-04-03 11:43:00,
2013-04-03 06:48:00,31.6,34.7,30.36,North,0,0.0,0.0,15,0.00,,,0.00,meteohub,2013-04-03 11:48:00,
2013-04-03 06:54:00,31.5,35.8,30.36,North,0,0.0,0.0,15,0.00,,,0.00,meteohub,2013-04-03 11:54:00,
2013-04-03 06:59:00,31.5,36.9,30.36,North,0,0.0,0.0,15,0.00,,,0.00,meteohub,2013-04-03 11:59:00,
2013-04-03 07:04:00,31.6,36.5,30.36,North,0,0.0,0.0,15,0.00,,,0.00,meteohub,2013-04-03 12:04:00,
2013-04-03 07:09:00,31.3,36.3,30.36,North,0,0.0,0.0,15,0.00,,,0.00,meteohub,2013-04-03 12:09:00,
2013-04-03 07:14:00,31.3,37.2,30.36,North,0,0.0,0.0,15,0.00,,,0.00,meteohub,2013-04-03 12:14:00,
2013-04-03 07:20:00,31.5,37.2,30.36,North,0,0.0,0.0,15,0.00,,,0.00,meteohub,2013-04-03 12:20:00,
2013-04-03 07:25:00,32.0,37.0,30.36,North,0,0.0,0.0,15,0.00,,,0.00,meteohub,2013-04-03 12:25:00,
2013-04-03 07:30:00,32.5,37.6,30.39,North,0,0.0,0.0,15,0.00,,,0.00,meteohub,2013-04-03 12:30:00,
2013-04-03 07:35:00,33.1,37.4,30.39,North,0,0.0,0.0,15,0.00,,,0.00,meteohub,2013-04-03 12:35:00,
2013-04-03 07:40:00,33.4,36.9,30.39,North,0,0.0,0.0,15,0.00,,,0.00,meteohub,2013-04-03 12:40:00,
2013-04-03 07:46:00,33.6,37.4,30.39,North,0,0.0,0.0,15,0.00,,,0.00,meteohub,2013-04-03 12:46:00,
2013-04-03 07:52:00,33.8,38.5,30.39,North,0,0.0,0.0,15,0.00,,,0.00,meteohub,2013-04-03 12:52:00,
2013-04-03 07:57:00,34.2,38.7,30.39,North,0,2.0,0.0,15,0.00,,,0.00,meteohub,2013-04-03 12:57:00,
2013-04-03 08:02:00,34.5,38.7,30.39,North,0,0.0,4.0,15,0.00,,,0.00,meteohub,2013-04-03 13:02:00,
2013-04-03 08:07:00,34.9,38.8,30.39,North,0,0.0,4.0,15,0.00,,,0.00,meteohub,2013-04-03 13:07:00,
2013-04-03 08:12:00,35.2,38.8,30.36,North,0,3.0,4.0,15,0.00,,,0.00,meteohub,2013-04-03 13:12:00,
2013-04-03 08:17:00,35.6,38.7,30.36,NE,41,5.0,5.0,14,0.00,,,0.00,meteohub,2013-04-03 13:17:00,
2013-04-03 08:22:00,36.1,39.2,30.36,North,3,5.0,8.0,14,0.00,,,0.00,meteohub,2013-04-03 13:22:00,
2013-04-03 08:27:00,36.5,38.8,30.39,NNE,25,4.0,8.0,14,0.00,,,0.00,meteohub,2013-04-03 13:27:00,
2013-04-03 08:33:00,36.9,38.5,30.39,NE,35,4.0,8.0,14,0.00,,,0.00,meteohub,2013-04-03 13:33:00,
2013-04-03 08:38:00,37.2,38.3,30.39,NNE,27,5.0,6.0,14,0.00,,,0.00,meteohub,2013-04-03 13:38:00,
2013-04-03 08:43:00,37.6,37.9,30.39,NNE,27,4.0,6.0,14,0.00,,,0.00,meteohub,2013-04-03 13:43:00,
2013-04-03 08:48:00,38.3,37.8,30.39,NE,52,4.0,6.0,14,0.00,,,0.00,meteohub,2013-04-03 13:48:00,
2013-04-03 08:53:00,38.8,37.6,30.39,ENE,59,4.0,6.0,14,0.00,,,0.00,meteohub,2013-04-03 13:53:00,
2013-04-03 08:58:00,39.4,37.6,30.39,ENE,68,4.0,6.0,13,0.00,,,0.00,meteohub,2013-04-03 13:58:00,
2013-04-03 09:04:00,40.1,37.4,30.39,NE,54,4.0,6.0,13,0.00,,,0.00,meteohub,2013-04-03 14:04:00,
2013-04-03 09:09:00,40.3,37.2,30.39,ENE,65,4.0,6.0,13,0.00,,,0.00,meteohub,2013-04-03 14:09:00,
2013-04-03 09:14:00,40.5,37.0,30.39,NNE,15,6.0,6.0,13,0.00,,,0.00,meteohub,2013-04-03 14:14:00,
2013-04-03 09:19:00,40.6,36.9,30.39,NNE,16,4.0,8.0,13,0.00,,,0.00,meteohub,2013-04-03 14:19:00,
2013-04-03 09:24:00,41.2,36.9,30.39,ENE,61,4.0,8.0,13,0.00,,,0.00,meteohub,2013-04-03 14:24:00,
2013-04-03 09:30:00,42.1,36.7,30.39,NNE,24,4.0,8.0,13,0.00,,,0.00,meteohub,2013-04-03 14:30:00,
2013-04-03 09:35:00,42.8,36.5,30.39,NE,43,4.0,6.0,13,0.00,,,0.00,meteohub,2013-04-03 14:35:00,
2013-04-03 09:40:00,43.2,36.5,30.39,ESE,106,6.0,6.0,13,0.00,,,0.00,meteohub,2013-04-03 14:40:00,
2013-04-03 09:45:00,43.9,37.0,30.39,ENE,75,3.0,6.0,13,0.00,,,0.00,meteohub,2013-04-03 14:45:00,
2013-04-03 09:51:00,44.6,37.0,30.39,NE,48,5.0,8.0,12,0.00,,,0.00,meteohub,2013-04-03 14:51:00,
2013-04-03 09:56:00,45.0,36.9,30.39,ENE,66,5.0,8.0,12,0.00,,,0.00,meteohub,2013-04-03 14:56:00,
2013-04-03 10:01:00,45.1,36.7,30.39,ENE,62,5.0,8.0,12,0.00,,,0.00,meteohub,2013-04-03 15:01:00,
2013-04-03 10:06:00,45.1,36.7,30.39,East,79,4.0,8.0,12,0.00,,,0.00,meteohub,2013-04-03 15:06:00,
2013-04-03 10:12:00,45.7,36.5,30.39,East,80,5.0,8.0,12,0.00,,,0.00,meteohub,2013-04-03 15:12:00,
2013-04-03 10:17:00,46.2,36.5,30.39,ESE,106,5.0,8.0,12,0.00,,,0.00,meteohub,2013-04-03 15:17:00,
2013-04-03 10:22:00,46.8,36.5,30.39,NE,34,6.0,8.0,12,0.00,,,0.00,meteohub,2013-04-03 15:22:00,
2013-04-03 10:27:00,46.8,36.3,30.39,ESE,112,4.0,8.0,12,0.00,,,0.00,meteohub,2013-04-03 15:27:00,
2013-04-03 10:32:00,46.9,36.3,30.36,East,95,6.0,8.0,12,0.00,,,0.00,meteohub,2013-04-03 15:32:00,
2013-04-03 10:38:00,46.9,36.5,30.36,ENE,60,5.0,8.0,12,0.00,,,0.00,meteohub,2013-04-03 15:38:00,
2013-04-03 10:43:00,46.9,36.9,30.36,East,93,3.0,8.0,12,0.00,,,0.00,meteohub,2013-04-03 15:43:00,
2013-04-03 10:48:00,47.1,36.9,30.36,ESE,119,4.0,8.0,12,0.00,,,0.00,meteohub,2013-04-03 15:48:00,
2013-04-03 10:54:00,47.5,36.7,30.36,East,101,5.0,11.0,12,0.00,,,0.00,meteohub,2013-04-03 15:54:00,
2013-04-03 10:59:00,47.8,36.7,30.39,SE,146,3.0,11.0,12,0.00,,,0.00,meteohub,2013-04-03 15:59:00,
2013-04-03 11:04:00,48.0,36.5,30.39,East,81,4.0,6.0,12,0.00,,,0.00,meteohub,2013-04-03 16:04:00,
2013-04-03 11:13:00,48.2,36.5,30.39,ENE,71,5.0,6.0,11,0.00,,,0.00,meteohub,2013-04-03 16:13:00,
2013-04-03 11:18:00,48.2,36.5,30.39,NE,43,3.0,8.0,11,0.00,,,0.00,meteohub,2013-04-03 16:18:00,
2013-04-03 11:30:00,48.4,36.5,30.39,North,2,9.0,9.0,11,0.00,,,0.00,meteohub,2013-04-03 16:30:00,
2013-04-03 11:35:00,48.7,36.9,30.39,North,353,6.0,10.0,11,0.00,,,0.00,meteohub,2013-04-03 16:35:00,
2013-04-03 11:40:00,48.7,36.9,30.39,East,94,4.0,10.0,11,0.00,,,0.00,meteohub,2013-04-03 16:40:00,
2013-04-03 11:45:00,48.7,36.9,30.36,ENE,62,4.0,10.0,11,0.00,,,0.00,meteohub,2013-04-03 16:45:00,
2013-04-03 11:51:00,48.7,36.9,30.36,NNE,21,6.0,11.0,11,0.00,,,0.00,meteohub,2013-04-03 16:51:00,
2013-04-03 11:56:00,48.7,36.7,30.36,NE,47,6.0,11.0,11,0.00,,,0.00,meteohub,2013-04-03 16:56:00,
2013-04-03 12:02:00,49.1,36.7,30.36,ENE,59,8.0,11.0,11,0.00,,,0.00,meteohub,2013-04-03 17:02:00,
2013-04-03 12:07:00,49.1,36.7,30.36,East,89,6.0,10.0,11,0.00,,,0.00,meteohub,2013-04-03 17:07:00,
2013-04-03 12:12:00,48.9,36.9,30.36,ESE,118,3.0,11.0,11,0.00,,,0.00,meteohub,2013-04-03 17:12:00,
2013-04-03 12:18:00,48.9,38.1,30.36,East,82,7.0,11.0,11,0.00,,,0.00,meteohub,2013-04-03 17:18:00,
2013-04-03 12:23:00,49.1,38.3,30.36,ENE,65,5.0,11.0,11,0.00,,,0.00,meteohub,2013-04-03 17:23:00,
2013-04-03 12:28:00,49.3,38.1,30.33,NE,41,5.0,8.0,11,0.00,,,0.00,meteohub,2013-04-03 17:28:00,
2013-04-03 12:33:00,49.6,37.9,30.33,ENE,74,3.0,8.0,11,0.00,,,0.00,meteohub,2013-04-03 17:33:00,
2013-04-03 12:38:00,50.0,37.8,30.33,NE,37,3.0,8.0,11,0.00,,,0.00,meteohub,2013-04-03 17:38:00,
2013-04-03 12:44:00,50.2,37.8,30.33,ENE,72,6.0,11.0,11,0.00,,,0.00,meteohub,2013-04-03 17:44:00,
2013-04-03 12:50:00,49.6,38.1,30.33,ENE,63,5.0,11.0,11,0.00,,,0.00,meteohub,2013-04-03 17:50:00,
2013-04-03 12:55:00,50.2,38.1,30.33,NNE,21,10.0,11.0,11,0.00,,,0.00,meteohub,2013-04-03 17:55:00,
2013-04-03 13:00:00,50.0,37.9,30.33,ENE,78,5.0,11.0,11,0.00,,,0.00,meteohub,2013-04-03 18:00:00,
2013-04-03 13:05:00,50.2,37.9,30.33,East,83,5.0,10.0,11,0.00,,,0.00,meteohub,2013-04-03 18:05:00,
2013-04-03 13:10:00,50.7,38.3,30.33,ENE,66,6.0,10.0,11,0.00,,,0.00,meteohub,2013-04-03 18:10:00,
2013-04-03 13:16:00,50.5,38.3,30.33,ENE,59,6.0,10.0,11,0.00,,,0.00,meteohub,2013-04-03 18:16:00,
2013-04-03 13:22:00,50.4,38.1,30.33,North,357,6.0,10.0,11,0.00,,,0.00,meteohub,2013-04-03 18:22:00,
2013-04-03 13:28:00,50.4,38.1,30.33,NE,35,10.0,10.0,11,0.00,,,0.00,meteohub,2013-04-03 18:28:00,
2013-04-03 13:33:00,50.4,38.1,30.33,East,90,4.0,11.0,11,0.00,,,0.00,meteohub,2013-04-03 18:33:00,
2013-04-03 13:39:00,50.9,37.9,30.33,ENE,61,6.0,11.0,11,0.00,,,0.00,meteohub,2013-04-03 18:39:00,
2013-04-03 13:44:00,51.3,37.9,30.33,East,89,3.0,11.0,11,0.00,,,0.00,meteohub,2013-04-03 18:44:00,
2013-04-03 13:49:00,51.1,37.9,30.33,SW,219,6.0,8.0,11,0.00,,,0.00,meteohub,2013-04-03 18:49:00,
2013-04-03 13:54:00,50.9,37.9,30.33,NE,55,6.0,8.0,11,0.00,,,0.00,meteohub,2013-04-03 18:54:00,
2013-04-03 14:00:00,50.9,37.9,30.30,ENE,68,4.0,13.0,11,0.00,,,0.00,meteohub,2013-04-03 19:00:00,
2013-04-03 14:05:00,51.1,37.8,30.30,SE,130,4.0,13.0,11,0.00,,,0.00,meteohub,2013-04-03 19:05:00,
2013-04-03 14:10:00,50.9,37.8,30.30,East,92,2.0,13.0,11,0.00,,,0.00,meteohub,2013-04-03 19:10:00,
2013-04-03 14:15:00,51.3,37.8,30.30,NE,47,6.0,13.0,11,0.00,,,0.00,meteohub,2013-04-03 19:15:00,
2013-04-03 14:20:00,51.6,37.8,30.30,NE,37,6.0,11.0,11,0.00,,,0.00,meteohub,2013-04-03 19:20:00,
2013-04-03 14:26:00,51.4,37.9,30.30,ESE,114,5.0,11.0,11,0.00,,,0.00,meteohub,2013-04-03 19:26:00,
2013-04-03 14:31:00,51.8,37.9,30.30,SE,138,3.0,9.0,11,0.00,,,0.00,meteohub,2013-04-03 19:31:00,
2013-04-03 14:36:00,51.8,37.9,30.30,ENE,77,2.0,6.0,11,0.00,,,0.00,meteohub,2013-04-03 19:36:00,
2013-04-03 14:42:00,51.6,37.9,30.30,NNE,28,8.0,11.0,11,0.00,,,0.00,meteohub,2013-04-03 19:42:00,
2013-04-03 14:47:00,51.8,37.9,30.30,ESE,106,5.0,11.0,11,0.00,,,0.00,meteohub,2013-04-03 19:47:00,
2013-04-03 14:52:00,52.0,37.9,30.30,ENE,58,6.0,9.0,11,0.00,,,0.00,meteohub,2013-04-03 19:52:00,
2013-04-03 14:57:00,52.0,37.9,30.30,East,93,7.0,12.0,11,0.00,,,0.00,meteohub,2013-04-03 19:57:00,
2013-04-03 15:03:00,52.2,37.9,30.30,ESE,116,6.0,12.0,11,0.00,,,0.00,meteohub,2013-04-03 20:03:00,
2013-04-03 15:08:00,52.0,37.9,30.30,NE,46,5.0,12.0,11,0.00,,,0.00,meteohub,2013-04-03 20:08:00,
2013-04-03 15:13:00,52.0,37.9,30.30,ENE,62,3.0,12.0,11,0.00,,,0.00,meteohub,2013-04-03 20:13:00,
2013-04-03 15:18:00,52.2,38.1,30.30,ESE,113,4.0,12.0,11,0.00,,,0.00,meteohub,2013-04-03 20:18:00,
2013-04-03 15:24:00,52.2,38.1,30.30,ENE,64,4.0,12.0,11,0.00,,,0.00,meteohub,2013-04-03 20:24:00,
2013-04-03 15:29:00,52.7,38.1,30.30,East,87,3.0,8.0,11,0.00,,,0.00,meteohub,2013-04-03 20:29:00,
2013-04-03 15:34:00,52.7,38.3,30.30,ENE,72,3.0,10.0,11,0.00,,,0.00,meteohub,2013-04-03 20:34:00,
2013-04-03 15:39:00,52.5,38.3,30.30,ENE,64,0.0,10.0,11,0.00,,,0.00,meteohub,2013-04-03 20:39:00,
2013-04-03 15:44:00,52.2,38.3,30.30,NNE,17,9.0,11.0,11,0.00,,,0.00,meteohub,2013-04-03 20:44:00,
2013-04-03 15:49:00,52.0,38.5,30.30,ENE,71,3.0,11.0,11,0.00,,,0.00,meteohub,2013-04-03 20:49:00,
2013-04-03 15:54:00,52.2,38.5,30.30,ESE,119,4.0,11.0,11,0.00,,,0.00,meteohub,2013-04-03 20:54:00,
2013-04-03 16:02:00,52.0,38.7,30.30,ENE,64,6.0,11.0,11,0.00,,,0.00,meteohub,2013-04-03 21:02:00,
2013-04-03 16:07:00,51.8,38.7,30.30,ESE,105,4.0,11.0,11,0.00,,,0.00,meteohub,2013-04-03 21:07:00,
2013-04-03 16:12:00,52.0,38.8,30.30,SE,131,4.0,10.0,11,0.00,,,0.00,meteohub,2013-04-03 21:12:00,
2013-04-03 16:18:00,52.2,38.8,30.30,East,84,5.0,10.0,11,0.00,,,0.00,meteohub,2013-04-03 21:18:00,
2013-04-03 16:23:00,51.8,38.8,30.30,ENE,61,3.0,8.0,11,0.00,,,0.00,meteohub,2013-04-03 21:23:00,
2013-04-03 16:28:00,52.2,38.8,30.27,East,89,4.0,8.0,11,0.00,,,0.00,meteohub,2013-04-03 21:28:00,
2013-04-03 16:34:00,52.5,38.8,30.27,East,93,3.0,8.0,11,0.00,,,0.00,meteohub,2013-04-03 21:34:00,
2013-04-03 16:39:00,52.5,38.8,30.27,NNE,17,8.0,10.0,11,0.00,,,0.00,meteohub,2013-04-03 21:39:00,
2013-04-03 16:45:00,52.7,38.8,30.27,ESE,118,5.0,10.0,11,0.00,,,0.00,meteohub,2013-04-03 21:45:00,
2013-04-03 16:50:00,52.3,38.8,30.27,NNW,339,9.0,11.0,11,0.00,,,0.00,meteohub,2013-04-03 21:50:00,
2013-04-03 16:55:00,52.2,38.8,30.27,NE,56,4.0,12.0,11,0.00,,,0.00,meteohub,2013-04-03 21:55:00,
2013-04-03 17:01:00,51.8,38.8,30.27,ENE,60,5.0,12.0,11,0.00,,,0.00,meteohub,2013-04-03 22:01:00,
2013-04-03 17:06:00,51.6,38.8,30.27,ENE,59,4.0,12.0,11,0.00,,,0.00,meteohub,2013-04-03 22:06:00,
2013-04-03 17:11:00,51.4,38.8,30.27,NE,36,6.0,8.0,11,0.00,,,0.00,meteohub,2013-04-03 22:11:00,
2013-04-03 17:17:00,51.3,38.8,30.27,ENE,78,4.0,8.0,11,0.00,,,0.00,meteohub,2013-04-03 22:17:00,
2013-04-03 17:22:00,51.3,38.8,30.27,ENE,66,4.0,8.0,11,0.00,,,0.00,meteohub,2013-04-03 22:22:00,
2013-04-03 17:27:00,51.4,38.8,30.27,ENE,57,8.0,8.0,11,0.00,,,0.00,meteohub,2013-04-03 22:27:00,
2013-04-03 17:32:00,51.3,38.8,30.27,NE,54,6.0,8.0,11,0.00,,,0.00,meteohub,2013-04-03 22:32:00,
2013-04-03 17:37:00,51.3,38.8,30.27,East,81,3.0,8.0,11,0.00,,,0.00,meteohub,2013-04-03 22:37:00,
2013-04-03 17:42:00,51.1,38.8,30.27,ESE,102,2.0,8.0,11,0.00,,,0.00,meteohub,2013-04-03 22:42:00,
2013-04-03 17:48:00,51.1,38.8,30.27,East,88,2.0,7.0,11,0.00,,,0.00,meteohub,2013-04-03 22:48:00,
2013-04-03 17:53:00,51.1,38.8,30.27,SE,135,4.0,5.0,11,0.00,,,0.00,meteohub,2013-04-03 22:53:00,
2013-04-03 17:58:00,51.1,38.8,30.27,ENE,63,3.0,6.0,11,0.00,,,0.00,meteohub,2013-04-03 22:58:00,
2013-04-03 18:03:00,50.9,38.7,30.27,ENE,77,3.0,6.0,11,0.00,,,0.00,meteohub,2013-04-03 23:03:00,
2013-04-03 18:09:00,50.9,38.7,30.27,East,81,0.0,7.0,11,0.00,,,0.00,meteohub,2013-04-03 23:09:00,
2013-04-03 18:14:00,50.7,38.7,30.27,ENE,59,3.0,7.0,11,0.00,,,0.00,meteohub,2013-04-03 23:14:00,
2013-04-03 18:19:00,50.5,38.7,30.27,NE,56,0.0,5.0,11,0.00,,,0.00,meteohub,2013-04-03 23:19:00,
2013-04-03 18:25:00,50.4,38.5,30.27,East,94,3.0,5.0,11,0.00,,,0.00,meteohub,2013-04-03 23:25:00,
2013-04-03 18:30:00,50.2,38.5,30.27,East,82,4.0,5.0,11,0.00,,,0.00,meteohub,2013-04-03 23:30:00,
2013-04-03 18:36:00,50.2,38.5,30.27,ENE,69,4.0,6.0,11,0.00,,,0.00,meteohub,2013-04-03 23:36:00,
2013-04-03 18:41:00,50.0,38.3,30.27,ENE,71,3.0,6.0,11,0.00,,,0.00,meteohub,2013-04-03 23:41:00,
2013-04-03 18:46:00,49.8,38.3,30.27,NE,56,3.0,6.0,11,0.00,,,0.00,meteohub,2013-04-03 23:46:00,
2013-04-03 18:51:00,49.8,38.3,30.27,ESE,106,3.0,6.0,11,0.00,,,0.00,meteohub,2013-04-03 23:51:00,
2013-04-03 18:57:00,49.6,38.3,30.27,NNE,15,5.0,6.0,11,0.00,,,0.00,meteohub,2013-04-03 23:57:00,
2013-04-03 19:02:00,49.5,38.1,30.27,NE,46,5.0,6.0,11,0.00,,,0.00,meteohub,2013-04-04 00:02:00,
2013-04-03 19:07:00,49.3,38.1,30.27,ENE,66,3.0,6.0,11,0.00,,,0.00,meteohub,2013-04-04 00:07:00,
2013-04-03 19:12:00,49.1,38.1,30.27,NNE,27,6.0,6.0,11,0.00,,,0.00,meteohub,2013-04-04 00:12:00,
2013-04-03 19:18:00,48.9,37.9,30.27,NNE,31,4.0,6.0,11,0.00,,,0.00,meteohub,2013-04-04 00:18:00,
2013-04-03 19:23:00,48.7,37.9,30.27,ENE,73,3.0,6.0,11,0.00,,,0.00,meteohub,2013-04-04 00:23:00,
2013-04-03 19:28:00,48.6,37.9,30.24,NE,44,3.0,6.0,11,0.00,,,0.00,meteohub,2013-04-04 00:28:00,
2013-04-03 19:33:00,48.4,37.8,30.24,NNE,31,4.0,5.0,11,0.00,,,0.00,meteohub,2013-04-04 00:33:00,
2013-04-03 19:39:00,48.2,37.9,30.24,NE,45,4.0,5.0,11,0.00,,,0.00,meteohub,2013-04-04 00:39:00,
2013-04-03 19:44:00,48.0,38.7,30.27,NE,43,3.0,5.0,12,0.00,,,0.00,meteohub,2013-04-04 00:44:00,
2013-04-03 19:49:00,47.8,38.7,30.27,NE,41,3.0,6.0,12,0.00,,,0.00,meteohub,2013-04-04 00:49:00,
2013-04-03 19:54:00,47.7,38.5,30.27,NE,38,2.0,6.0,12,0.00,,,0.00,meteohub,2013-04-04 00:54:00,
2013-04-03 20:00:00,47.5,38.3,30.24,NE,44,3.0,6.0,12,0.00,,,0.00,meteohub,2013-04-04 01:00:00,
2013-04-03 20:05:00,47.3,38.3,30.24,ENE,59,3.0,4.0,12,0.00,,,0.00,meteohub,2013-04-04 01:05:00,
2013-04-03 20:10:00,47.1,38.3,30.24,NE,43,3.0,5.0,12,0.00,,,0.00,meteohub,2013-04-04 01:10:00,
2013-04-03 20:15:00,47.1,38.1,30.24,ENE,68,0.0,5.0,12,0.00,,,0.00,meteohub,2013-04-04 01:15:00,
2013-04-03 20:21:00,46.9,38.1,30.24,NE,34,0.0,5.0,12,0.00,,,0.00,meteohub,2013-04-04 01:21:00,
2013-04-03 20:27:00,46.8,38.1,30.24,NE,34,0.0,4.0,12,0.00,,,0.00,meteohub,2013-04-04 01:27:00,
2013-04-03 20:32:00,46.4,37.9,30.27,NE,34,0.0,3.0,12,0.00,,,0.00,meteohub,2013-04-04 01:32:00,
2013-04-03 20:37:00,45.9,37.9,30.27,NE,34,0.0,0.0,12,0.00,,,0.00,meteohub,2013-04-04 01:37:00,
2013-04-03 20:43:00,45.5,38.5,30.27,NE,34,0.0,0.0,12,0.00,,,0.00,meteohub,2013-04-04 01:43:00,
2013-04-03 20:48:00,45.3,38.3,30.27,NE,34,0.0,0.0,12,0.00,,,0.00,meteohub,2013-04-04 01:48:00,
2013-04-03 20:54:00,45.1,38.3,30.27,NE,34,0.0,0.0,12,0.00,,,0.00,meteohub,2013-04-04 01:54:00,
2013-04-03 20:59:00,45.0,38.1,30.27,NE,34,0.0,0.0,12,0.00,,,0.00,meteohub,2013-04-04 01:59:00,
2013-04-03 21:04:00,44.8,37.9,30.27,NE,34,0.0,0.0,12,0.00,,,0.00,meteohub,2013-04-04 02:04:00,
2013-04-03 21:09:00,44.4,37.9,30.27,NE,34,0.0,0.0,13,0.00,,,0.00,meteohub,2013-04-04 02:09:00,
2013-04-03 21:15:00,44.2,37.9,30.27,NE,34,0.0,0.0,13,0.00,,,0.00,meteohub,2013-04-04 02:15:00,
2013-04-03 21:20:00,44.1,37.9,30.27,NE,34,0.0,0.0,13,0.00,,,0.00,meteohub,2013-04-04 02:20:00,
2013-04-03 21:25:00,44.1,37.9,30.27,NE,34,0.0,0.0,13,0.00,,,0.00,meteohub,2013-04-04 02:25:00,
2013-04-03 21:30:00,44.2,37.8,30.27,NE,34,0.0,0.0,13,0.00,,,0.00,meteohub,2013-04-04 02:30:00,
2013-04-03 21:36:00,44.4,38.3,30.27,NE,34,0.0,0.0,13,0.00,,,0.00,meteohub,2013-04-04 02:36:00,
2013-04-03 21:42:00,44.6,38.3,30.27,NE,34,0.0,0.0,12,0.00,,,0.00,meteohub,2013-04-04 02:42:00,
2013-04-03 21:47:00,44.6,38.3,30.27,NE,34,0.0,0.0,12,0.00,,,0.00,meteohub,2013-04-04 02:47:00,
2013-04-03 21:52:00,44.4,38.1,30.27,NE,34,0.0,0.0,13,0.00,,,0.00,meteohub,2013-04-04 02:52:00,
2013-04-03 21:58:00,44.4,38.1,30.27,NE,34,0.0,0.0,13,0.00,,,0.00,meteohub,2013-04-04 02:58:00,
2013-04-03 22:03:00,44.6,38.1,30.27,NE,34,0.0,0.0,12,0.00,,,0.00,meteohub,2013-04-04 03:03:00,
2013-04-03 22:08:00,44.6,38.1,30.27,NE,34,0.0,0.0,12,0.00,,,0.00,meteohub,2013-04-04 03:08:00,
2013-04-03 22:13:00,44.6,37.9,30.27,NE,34,0.0,0.0,12,0.00,,,0.00,meteohub,2013-04-04 03:13:00,
2013-04-03 22:18:00,44.6,37.9,30.27,NE,34,0.0,0.0,12,0.00,,,0.00,meteohub,2013-04-04 03:18:00,
2013-04-03 22:23:00,44.2,37.9,30.27,NE,34,0.0,0.0,13,0.00,,,0.00,meteohub,2013-04-04 03:23:00,
2013-04-03 22:29:00,44.1,38.1,30.27,NE,34,0.0,0.0,13,0.00,,,0.00,meteohub,2013-04-04 03:29:00,
2013-04-03 22:34:00,43.7,38.5,30.27,NE,34,0.0,0.0,13,0.00,,,0.00,meteohub,2013-04-04 03:34:00,
2013-04-03 22:40:00,43.5,38.5,30.27,NE,34,0.0,0.0,13,0.00,,,0.00,meteohub,2013-04-04 03:40:00,
2013-04-03 22:45:00,43.3,38.3,30.27,NE,34,0.0,0.0,13,0.00,,,0.00,meteohub,2013-04-04 03:45:00,
2013-04-03 22:50:00,43.0,38.1,30.27,NE,34,0.0,0.0,13,0.00,,,0.00,meteohub,2013-04-04 03:50:00,
2013-04-03 22:55:00,43.0,38.1,30.27,NE,34,0.0,0.0,13,0.00,,,0.00,meteohub,2013-04-04 03:55:00,
2013-04-03 23:00:00,42.8,37.9,30.27,NE,34,0.0,0.0,13,0.00,,,0.00,meteohub,2013-04-04 04:00:00,
2013-04-03 23:02:00,42.6,38.1,30.27,NE,34,0.0,0.0,13,0.00,,,0.00,meteohub,2013-04-04 04:02:00,
2013-04-03 23:08:00,42.3,38.8,30.27,NE,34,0.0,0.0,13,0.00,,,0.00,meteohub,2013-04-04 04:08:00,
2013-04-03 23:09:00,42.3,38.8,30.27,NE,34,0.0,0.0,13,0.00,,,0.00,meteohub,2013-04-04 04:09:00,
2013-04-03 23:14:00,42.1,38.8,30.24,NE,34,0.0,0.0,13,0.00,,,0.00,meteohub,2013-04-04 04:14:00,
2013-04-03 23:19:00,41.7,38.7,30.24,NE,34,0.0,0.0,13,0.00,,,0.00,meteohub,2013-04-04 04:19:00,
2013-04-03 23:24:00,41.2,38.5,30.24,NE,34,0.0,0.0,13,0.00,,,0.00,meteohub,2013-04-04 04:24:00,
2013-04-03 23:30:00,41.0,38.3,30.24,NE,34,0.0,0.0,13,0.00,,,0.00,meteohub,2013-04-04 04:30:00,
2013-04-03 23:35:00,40.6,38.3,30.24,NE,34,0.0,0.0,13,0.00,,,0.00,meteohub,2013-04-04 04:35:00,
2013-04-03 23:40:00,40.3,38.8,30.24,NE,34,0.0,0.0,13,0.00,,,0.00,meteohub,2013-04-04 04:40:00,
2013-04-03 23:46:00,39.9,38.8,30.24,NE,34,0.0,0.0,13,0.00,,,0.00,meteohub,2013-04-04 04:46:00,
2013-04-03 23:51:00,39.7,38.7,30.24,NE,34,0.0,0.0,13,0.00,,,0.00,meteohub,2013-04-04 04:51:00,
2013-04-03 23:57:00,39.4,38.5,30.24,NE,34,0.0,0.0,13,0.00,,,0.00,meteohub,2013-04-04 04:57:00,